Regional Weather Roundup
Issued by NWS Wakefield, VA

Home | Current Version | Previous Version | Graphics & Text | Print | Product List | Glossary On
Versions: 1 2 3 4 5 6 7 8 9 10 11 12 13 14 15 16 17 18 19 20 21 22 23 24 25 26 27
000
ASUS41 KAKQ 172016
RWRAKQ

REGIONAL WEATHER ROUNDUP
NATIONAL WEATHER SERVICE WAKEFIELD VA
400 PM EDT THU AUG 17 2017

Note: "fair" indicates few or no clouds below 12,000 feet with no
significant weather and/or obstructions to visibility. * = Denotes
station may not report precipitation (e.g., rain,snow,etc.),
thunder or fog.

VAZ042-051-052>054-056-172100-
NORTHERN VIRGINIA

CITY           SKY/WX    TMP DP  RH WIND       PRES   REMARKS
WASH NATIONAL  CLOUDY    83  77  82 S17G26    29.94F
DULLES         PTSUNNY   85  74  69 SW10      29.93F
FORT BELVOIR   CLOUDY    83  74  76 SE13      29.94F
QUANTICO       PTSUNNY   85  78  80 SE8       29.94F HX  96
FREDERICKSBRG* SUNNY     90  73  56 S12       29.93F HX  97
STAFFORD*      PTSUNNY   86  72  62 S7        29.97F
WARRENTON      PTSUNNY   91  71  52 SE8       29.93F HX  97
CULPEPER*      MOSUNNY   91  76  61 S8        29.93F HX 101
MANASSAS*      LGT RAIN  83  76  79 CALM      29.93F
LEESBURG*      PTSUNNY   90  77  66 S16       29.94F HX 102
WINCHESTER     PTSUNNY   86  73  66 SE9       29.93F
FRONT ROYAL*   PTCLDY    88  75  66 E6        29.92F HX  97
LURAY*         CLEAR     91  68  46 S3        29.93F HX  95
$$

VAZ048-049-060>072-079>083-172100-
CENTRAL AND SOUTH CENTRAL VIRGINIA

CITY           SKY/WX    TMP DP  RH WIND       PRES   REMARKS
RICHMOND       MOSUNNY   85  73  67 S14       29.96F
CHESTERFIELD*  FAIR      85  71  63 S13       29.97F
PETERSBURG*    MOSUNNY   84  71  64 SE5       29.98F
HANOVER        SUNNY     86  72  62 S8G18     29.97F
TAPPAHANNOCK*  PTSUNNY   88  66  48 S8        29.97F
QUINTON*       FAIR      82  76  80 SE6       29.96F
CHARLOTTSVILLE SUNNY     90  73  57 SW3       29.93F HX  98
GORDONSVILLE*  MOCLDY    87  76  69 S7        29.93F HX  98
ORANGE*        SUNNY     88  73  62 SE8       29.93F HX  96
LOUISA*        MOSUNNY   88  73  62 S7        29.94F HX  96
BUMPASS*       FAIR      88  73  61 S8        29.95F HX  96
FARMVILLE*     CLOUDY    85  77  77 SW3       29.93F HX  96
CREWE*         FAIR      87  72  61 S9        29.96F
FORT PICKETT*  FAIR     N/A N/A N/A SE10      29.97F
CHASE CITY*    FAIR      86  78  75 SE8       29.96F HX  98
CLARKSVILLE*   FAIR      86  77  74 SE9       29.96F HX  97
SOUTH HILL*    CLOUDY    82  77  85 SE6       30.03F
LAWRENCEVILLE* FAIR      83  75  79 SE3       29.97F
EMPORIA*       PTSUNNY   81  77  89 E5        29.98F
$$

VAZ088>098-172100-
SOUTHEAST VIRGINIA

CITY           SKY/WX    TMP DP  RH WIND       PRES   REMARKS
NORFOLK        MOSUNNY   89  70  53 S7        29.97F
VIRGINIA BEACH PTSUNNY   83  69  62 SE9       29.98F
NORFOLK NAVAL  PTSUNNY   90  67  46 SW8       29.98F
WEST POINT*    CLOUDY    83  73  72 CALM      29.97F
SALUDA*        MOCLDY    84  73  67 SE7       29.98S
NEWPORT NEWS   PTSUNNY   86  72  62 E5        29.97F
LANGLEY AFB    PTSUNNY   86  74  67 SE7       29.97F
FORT EUSTIS    NOT AVBL
WILLIAMSBURG*  CLOUDY    84  75  74 CALM      29.98F
HR EXEC AP*    FAIR      90  68  48 SE7         N/A
FRANKLIN*      CLOUDY    83  74  73 CALM      29.98F
US460-WAKEFLD  PTSUNNY   84  75  74 VRB3      29.97F
$$

VAZ020-022-025-037-045-172100-
WEST CENTRAL AND SOUTHWEST VIRGINIA

CITY           SKY/WX    TMP DP  RH WIND       PRES   REMARKS
STAUNTON*      SUNNY     87  70  55 S8        29.97F
WAYNESBORO*    CLEAR     88  70  54 W7        29.98F
HOT SPRINGS VA MOSUNNY   81  61  50 SW7       30.13F
LYNCHBURG      PTSUNNY   90  70  51 S10       29.96F HX  95
DANVILLE       SUNNY     91  74  57 CALM      29.95F HX 100
SOUTH BOSTON*  MOCLDY    89  77  66 SE8       29.94F HX 101
MARTINSVILLE   PTSUNNY   89  73  58 CALM      30.00S HX  96
ROANOKE        PTSUNNY   94  66  39 VRB5      29.98F HX  97
BLACKSBURG     CLOUDY    84  76  77 N7        30.06F
DUBLIN*        MOSUNNY   88  70  55 W7        30.04F
MARION*        MOSUNNY   85 -14   2 W13G18    30.09F
HILLSVILLE*    PTSUNNY   82  66  59 CALM      30.07S
RICHLANDS*     FAIR      83  66  56 SW8       30.08F
WISE*          MOSUNNY   82  68  61 SW10G18   30.08F
ABINGDON*      MOSUNNY   86  74  66 W10       30.05F
$$

MDZ021>025-VAZ099-100-172100-
SOUTHERN MARYLAND AND THE DELMARVA PENINSULA

CITY           SKY/WX    TMP DP  RH WIND       PRES   REMARKS
PATUXENT RIVER CLOUDY    82  76  81 SE7       29.96F
BAY BRIDGE APT CLOUDY    82  75  78 S6        29.95F
LEONARDTOWN    CLOUDY    81  73  78 SE7       29.98F
DOVER          PTSUNNY   77  77 100 SE9       29.95F
GEORGETOWN     PTSUNNY   86  72  62 S12       29.97F
EASTON         PTSUNNY   86  72  62 S9        30.00F
CAMBRIDGE      SUNNY     86  72  62 S12       29.97S
SALISBURY      MOSUNNY   86  74  67 S9        29.97F
OCEAN CITY     SUNNY     82  75  79 S9        29.99F
WALLOPS ISLAND SUNNY     81  74  79 S13       30.00F
ACCOMACK*      PTSUNNY   83  71  68 SE12      29.99F
$$

NCZ012>017-030>032-172100-
NORTH CENTRAL AND EASTERN NORTH CAROLINA

CITY           SKY/WX    TMP DP  RH WIND       PRES   REMARKS
ROANOKE RAPIDS FAIR      77  77 100 CALM      29.98F
RALEIGH        HVY RAIN  83  77  82 S14       29.97S FOG
ELIZABETH CITY SUNNY     87  75  67 E12       29.99F HX  96
AHOSKIE*         N/A     85  77  75 SE3       29.98F HX  96
EDENTON*       SUNNY     91  73  56 SE8       29.99S HX  99
CURRITUCK*     SUNNY     86  49  27 E6        30.00F
KILL DEVIL HLS SUNNY     82  70  68 CALM      29.99F
MANTEO         SUNNY     84  70  64 SE8       30.01F
CAPE HATTERAS  SUNNY     86  75  69 SE7       30.01F HX  95
TARBORO*       NOT AVBL
GOLDSBORO      MOSUNNY   91  77  62 S14G23    29.95F HX 105
WASHINGTON     SUNNY     90  75  61 SE8       29.98F HX 101
GREENVILLE     MOSUNNY   91  72  52 SE10      29.98F HX  98
NEW BERN       PTSUNNY   90  77  65 S10       30.00F HX 103
WILMINGTON     CLOUDY    81  77  88 SW3       29.99F
$$

VAZ048-172100-
ELSEWHERE

CITY           SKY/WX    TMP DP  RH WIND       PRES   REMARKS
HARRISBURG PA  PTSUNNY   87  74  64 SE8       29.93F HX  95
BALTIMORE      CLOUDY    81  76  84 SE9       29.94F
ANNAPOLIS      LGT RAIN  80  77  90 S7        29.94F
ANDREWS AFB    LGT RAIN  78  73  83 S17G29    29.95S
PHILADELPHIA   MOSUNNY   87  63  44 S8        29.96F
HENDERSON NC   CLOUDY    82  73  76 SE13      29.97F
GREENSBORO     MOSUNNY   91  73  55 SW6       29.97F HX  99
ROCKY MOUNT    SUNNY     88  75  65 SE6       29.96F HX  97
$$

VAZ100-172100-
MARINE

STATION/POSITION TIME  TEMP    WIND        PRES    WAVE   SWELL
                       AIR SEA DIR/SP/G            HT/PER HT/PER
                 (UTC) (F)     (DEG/KT/KT) (MB)    (FT/S) (FT/S)
BRANDYWINE LGT   1936   77     150/ 10/ 11 1015.6F
CAPE MAY NJ      1936   80 80  140/  7/ 10 1014.9F
LEWES DE         1936   82 78  150/ 11/ 14 1014.7F
15NM E FENWICK I 1950   78 79  160/  8/ 10 1016.0F   2/ 6   2/ 6
OCEAN-CITY-INLET 1936   79 78  200/  9/ 13 1016.0F
WACHAPREAGUE VA  1936   80 84  170/ 10/ 12 1015.9F
THOMAS POINT MD  2000   79 81  150/ 20/ 24   N/A
GOOSES REEF MD   2000   81 81  170/ 16/ 19 1014.7    2/ 3
COVE POINT MD    1936   80     180/ 15/ 16 1015.6F
SOLOMONS ISLAND  1936   82 82  140/ 10/ 12   N/A
BISHOPS HEAD MD  1936   82 85  160/ 12/ 14 1015.1F
PINEY POINT MD   1942          170/ 13/ 15   N/A
POTOMAC MD       2000   83 81  160/ 12/ 14 1014.0    1/ 3
CAMBRIDGE MD     1936   87 82              1015.7F
LEWISETTA VA     1936   83 84  160/  8/ 10 1014.8F
RAPPAHANNOCK LGT 1942          130/ 13/ 15 1016.2F
STINGRAY PT      2000   83 82  180/ 12/ 16 1015.3    2/ 2
YORK RVR RNG VA  1936   81     140/ 15/ 16 1015.6F
YORKTOWN VA      1930   84 82  110/  9/ 11 1015.0F
JAMESTOWN VA     2000      84   70/  4/  6   N/A     0
DOMINION TERM VA 1936   87     320/  1/  3 1015.2F
KIPTOPEKE VA     1942      82  150/ 14/ 16   N/A
CHES BAY BRIDGE  1942   83 79  150/ 11/ 16 1015.1F
CAPE HENRY VA    1942   80     140/ 13/ 17   N/A
WILLOUBY STN VA  1936   86      60/  3/  5 1015.1F
S CRANEY ISL VA  1936   88     200/  4/ 10 1015.0F
CAPE HENRY BUOY  1930      80                N/A     2/ 7
1ST LANDING BUOY 2000   80 81              1014.9    2/ 3
64NM E OF VA BCH 1950   77 80  130/  6/  8 1016.5F   2/ 7   2/ 7
DUCK PIER NC     1942   80 79  120/ 12/ 13 1015.4F
44100 DUCK FRF   1905      80                N/A     2/ 7
44056 DUCK FRF   2000      80                N/A     2/ 7
OREGON INLET NC  1942   81 86  110/  8/ 10 1016.0F
HATTERAS NC      1942   82 84  160/  6/  7 1016.3F
DIAMOND SHLS NC  1950   82 87  140/  4/  6 1016.1F   2/ 6   2/ 6
CAPE LOOKOUT NC  2000   83     150/  9/ 10 1015.6F
$$




USA.gov is the U.S. government's official web portal to all federal, state and local government web resources and services.